Weather in Dereven'ka

Russia / Vologda Oblast     60°29′02″N   40°57′08″E
temp.,
°C
wind,
m/s
gust,
m/s
humid.,
%
clouds,
%
prec.,
mm/h
press.,
hPa
HPBL,
m
1 july, fri
fri100:00+9ene22713 0.0 102124
03:00+7ene22750 0.0 102327
06:00+12ne11595 0.0 1022129
09:00+17ene233638 0.0 10231313
12:00+20ne23305 0.0 10231604
15:00+22nne23278 0.0 10221766
18:00+22n12315 0.0 10211571
21:00+15w1156100 0.0 102211
2 july, sat
sat200:00+13w2258100 0.0 102141
03:00+14w2661100 0.0 1021146
06:00+16wnw3963100 0.0 1020274
09:00+22nnw36530 0.0 1019908
12:00+26n354524 0.0 10171850
15:00+27n45385 0.0 10172022
18:00+25nne3543100 0.0 10171715
21:00+18n26713 0.0 1018107
3 july, sun
sun300:00+15nne23825 0.0 101851
03:00+13ne22925 0.0 101822
06:00+17ene12720 0.0 1018170
09:00+22ne23490 0.0 10181029
12:00+26ne22360 0.0 10171780
15:00+27nne22300 0.0 10162077
18:00+25nne22350 0.0 10161775
21:00+18ene11592 0.0 101711
4 july, mon
mon400:00+15ene11635 0.0 101711
03:00+14sse00680 0.0 101710
06:00+18sse00580 0.0 101763
09:00+25s00380 0.0 1017662
12:00+29sw11280 0.0 10162086
15:00+29w22283 0.0 10152413
18:00+28sw11345 0.0 10141373
21:00+20wnw11743 0.0 101411
5 july, tue
tue500:00+17wsw229246 0.8 101526
03:00+17sw239361 1.1 101558
06:00+19sw279364 0.4 1014217
09:00+24sw35619 0.4 1013683
12:00+28sw344229 0.0 10121916
15:00+26sw3553100 0.1 10111188
18:00+26wsw475418 0.0 10091253
21:00+19w41193100 1.9 1010360